{"data":{"norad_id":58477,"intl_designator":"2023-186E","name":"STARLINK-30965","alt_names":[],"object_type":"PAYLOAD","status":"ACTIVE","operator":null,"country":"US","launch_date":"2023-12-03","launch_site_code":"AFETR","launch_vehicle":null,"mission":null,"orbit_class":"UNKNOWN","rcs_meters":null,"size_class":null,"mass_kg":null,"dimensions":null,"purposes":["comms"],"wikipedia_slug":null,"has_3d_model":false,"image_url":null,"decayed_at":null,"tle_current":{"epoch":"2026-09-20T15:25:59.367072Z","epoch_age_seconds":134341,"freshness":"FRESH","line1":"1 58477U 23186E   26263.64304823 -.00000192  00000+0  25567-5 0  9992","line2":"2 58477  43.0022  31.2020 0001177 262.7862  97.2856 15.27579198155845","mean_motion":15.27579198,"eccentricity":0.0001177,"inclination_deg":43.0022,"raan_deg":31.202,"arg_perigee_deg":262.7862,"mean_anomaly_deg":97.2856,"bstar":2.5567e-6,"rev_number":15584,"period_min":94.266798204986,"perigee_km":482.24393563106,"apogee_km":483.85905940338,"semimajor_km":6861.1884975172,"source":"CELESTRAK","updated_at":"2026-09-21T09:00:33.880811Z"}}}